KUIPER-00064

导读

KUIPER-00064是美国亚马逊公司柯伊伯(Project Kuiper)卫星互联网项目的一颗低轨通信卫星,于2025年6月23日发射,属于项目大规模部署阶段的组网卫星之一。柯伊伯计划计划由3236颗卫星组成星座,运行在590-630公里轨道,采用Ka波段,旨在为全球提供高速低延迟的可负担互联网接入,KUIPER-00064将承担起为用户提供宽带互联网接入服务的任务,助力项目完成全球覆盖的建设目标。

基本信息
目录编号:
64524
目录名称:
KUIPER-00064
国际标识:
2025-134AA
轨道中心:
EARTH
卫星名称:
KUIPER-00064
卫星全名:
KUIPER-00064
卫星状态:
在轨 (已飞行358 天)
发射日期:
2025-06-23 UTC
国别 :
美国 (US)
星等 :
--
轨道信息
数据来源 国际轨道数据 AOE轨道数据
星历时间 2026-06-16T14:55:42+0800
6小时前
查看轨道信息
2026-06-16T06:00:00+0800
15小时前
查看轨道信息
半长轴 7007.683km 7007.677km
偏心率 0.0000436 0.0000272
轨道倾角 51.901° 51.901°
近地点辐角 81.002° 71.573°
升交点赤经 159.542° 161.189°
平近点角 279.099° 105.364°
近地点 629.24km 629.349km
远地点 629.852km 629.731km
周期 97.302分钟 97.302分钟
每日圈数 14.799299 14.799317
详细信息
使用方式:
暂无
2D轨道图
3D轨道图
轨道高度分析图
轨道倾角分析图
轨道综合分析图
查看轨道综合分析图